Flag for United Kingdom Weather past 2 weeks in Colchester, England, United Kingdom

Now
64 °F

Scattered showers. Partly sunny.


Feels Like: 64 °F
Forecast: 54 / 67 °F
Wind: 17 mph from West

Location: Cranfield

Current Time: Jul 7, 2015 at 1:01:20 PM

Latest Report: Jul 7, 2015 at 12:20 PM


Visibility: 5 mi

Pressure: 29.74 "Hg

Humidity: 73%

Dew point: 55 °F

Location of ColchesterLocation

Historic Weather in Colchester — Graph

°F

Colchester temperature yesterday

Maximum temperature yesterday: 68 °F (at 12:20 PM)
Minimum temperature yesterday: 57 °F (at 7:50 AM)
Average temperature yesterday: 65 °F

Past Weeks' High & Low Weather Summary

 TemperatureHumidityPressure
High93 °F (Jul 1, 3:50 PM)94% (Jun 28, 11:50 AM)30.30 "Hg (Jun 28, 11:50 AM)
Low55 °F (Jun 23, 7:50 AM)25% (Jun 30, 3:50 PM)29.71 "Hg (Jul 7, 10:50 AM)
Average69 °F60%30.05 "Hg
* Reported Jun 22 11:20 AM — Jul 7 11:50 AM, Colchester, Weather by CustomWeather, © 2015

Note: Actual official high and low records may vary slightly from our data, if they occured in-between our weather recording intervals... More about our weather records

Advertising

Colchester weather history for previous 24 hours

 ConditionsComfort  
Time TempWeatherWind HumidityBarometerVisibility
11:50 AM
Tue, Jul 7
66 °FPartly sunny.13 mph73%29.74 "HgN/A
11:20 AM66 °FPartly sunny.13 mph73%29.74 "HgN/A
10:50 AM64 °FPartly sunny.16 mph88%29.71 "HgN/A
10:20 AM64 °FPartly sunny.14 mph88%29.74 "HgN/A
9:50 AM63 °FPartly sunny.15 mph94%29.74 "HgN/A
9:20 AM63 °FPartly sunny.15 mph94%29.74 "Hg5 mi
8:50 AM61 °FPartly sunny.14 mph94%29.77 "HgN/A
8:20 AM61 °FLight rain. Scattered clouds.12 mph94%29.77 "HgN/A
7:50 AM61 °FLight rain. Partly sunny.14 mph88%29.77 "Hg6 mi
5:50 PM
Mon, Jul 6
68 °FSunny.16 mph53%30.01 "Hg10 mi
5:20 PM68 °FSunny.13 mph56%30.01 "Hg10 mi
4:50 PM68 °FSunny.14 mph56%30.01 "Hg10 mi
4:20 PM66 °FSunny.15 mph56%30.04 "Hg10 mi
3:50 PM68 °FPassing clouds.14 mph53%30.04 "HgN/A
3:20 PM68 °FPassing clouds.14 mph56%30.04 "HgN/A
2:50 PM68 °FPassing clouds.14 mph60%30.04 "HgN/A
2:20 PM66 °FPassing clouds.14 mph64%30.04 "HgN/A
1:50 PM66 °FSprinkles. Scattered clouds.14 mph64%30.07 "HgN/A
1:20 PM66 °FPassing clouds.14 mph60%30.07 "HgN/A
Weather by CustomWeather, © 2015

See weather overviewHow to use our weather pages